Ana Sayfa
METAR-TAF:

METAR-TAF

Havaalanları :

Llano Municipal Airport

Llano, Teksas, Amerika Birleşik Devletleri

Enlem: 30-47-01N, Boylam: 098-39-43W, yükseklik: 336 m

Güncel hava durumu gözlemi

Rapor saat 19:15 UTC de 20 dakika önce yapıldı.
Rüzgar kuzey/kuzeybatıdan 9 kt
Sıcaklık 5°C
Nem 87%
Basınç 1027 hPa
Görüş mesafesi: 14.5 km
1200 ft yükseklikte çok bulutlu

METAR: KAQO 101915Z AUTO 34009KT 9SM OVC012 05/03 A3033 RMK AO2 PWINO

Saat: 13:35 (19:35 UTC)


TAF: eksik

4.000'den fazla havaalanı için hava durumu gözlemleri ve tahminleri (METAR ve TAF raporları).

Kullanılabilir istasyonlar harita üzerinde sarı ve kırmızı noktalarla gösterilir.

İstasyonun adını görmek için fareyi noktanın üzerinde gezdirin.

Sonrasında hava gözlem ve tahminlerini görmek için tıklayın.

Haritayı değiştirmek için: yaklaştırmak için siyah artı işaretli yeşil düğmeye ve uzaklaştırmak için de eksi işaretli düğmeye hızla tıklayın; bitişik haritalar için yeşil okları kullanın.


METAR-TAF: